SGDC

Last updated on Sun Apr 12 2026 00:02:54 GMT+0000 (Coordinated Universal Time)

1 42692U 17023B 26100.65554780 -.00000248 00000+0 00000+0 0 9998 2 42692 0.0399 45.0500 0003076 355.5293 319.4413 1.00270059 32732
UTC large
Height (km)
Speed (km/s)
/
Latitude / Longitude
Inclination (degrees)
Orbital Period (minutes)
Azimuth
Elevation
Range (km)
Doppler Factor

Next 0 passes for location: London (51.5072 / 0.1276)

Sorry there are no passes over London.
SGDC